Zurück zum Katalog

FENGYUN 1C DEB

AktivPO
NORAD 36644·DEBRIS·🇨🇳 China

Gestartet May 10, 1999 von Taiyuan Satellite Launch Center

Loading…

Nächste Überflüge (nächste 24 Stunden)

TLE

AlterndSource: Space-Track

Epoche: Sep 7, 2026, 12:56 UTC

1 36644U 99025DXN 26250.53926530  .00000949  00000-0  10108-2 0  9990
2 36644  98.4396 357.2170 0286087 193.5880 165.7444 13.59801238652200

Verfolge FENGYUN 1C DEB in Echtzeit mit AllMySat

Download on the App Store